Regional Weather Roundup
Issued by NWS Cleveland, OH

Home | Current Version | Previous Version | Graphics & Text | Print | Product List | Glossary On
Versions: 1 2 3 4 5 6 7 8 9 10 11 12 13 14 15 16 17 18 19 20 21 22 23 24 25 26 27 28 29 30 31 32 33 34 35 36 37 38 39 40 41 42 43 44 45 46 47 48 49 50
000
ASUS41 KCLE 261500
RWRCLE
OHIO REGIONAL WEATHER ROUNDUP
NATIONAL WEATHER SERVICE WILMINGTON, OH
1000 AM EST MON JAN 26 2015

NOTE: "FAIR" INDICATES FEW OR NO CLOUDS BELOW 12,000 FEET WITH NO
SIGNIFICANT WEATHER AND/OR OBSTRUCTIONS TO VISIBILITY.

OHZ001>008-015>018-024>027-034-035-043-044-261600-
   NORTHWEST OHIO

CITY           SKY/WX    TMP DP  RH WIND       PRES   REMARKS
DEFIANCE       SUNNY     14   6  70 N7        29.96R WCI   4
FINDLAY        LGT SNOW  15   8  73 N10       29.91R WCI   2
TOLEDO EXPRESS CLOUDY    13   6  74 N7        29.94S WCI   3
TOLEDO EXEC    CLOUDY    15   6  67 N8        29.95R WCI   4
LIMA           LGT SNOW  14   7  73 N12       29.91R WCI   0
$$

OHZ009>014-019>023-028>033-038-089-261600-
   NORTHEAST OHIO

CITY           SKY/WX    TMP DP  RH WIND       PRES   REMARKS
CLE-HOPKINS    CLOUDY    21  18  88 N17       29.87R WCI   7
CLE-LAKEFRONT  PTSUNNY   22  16  78 NE10      29.85R WCI  11
CUY CO. ARPT   PTSUNNY   21  18  86 NE14      29.83S WCI   8
LORAIN-ELYRIA  CLOUDY    20  16  84 NE15      29.86R WCI   6
ASHTABULA      LGT SNOW  19  14  81 NE8       29.83R WCI   9
AKRON-CANTON   LGT SNOW  20  15  81 N10       29.77R VSB 1   WCI   9
WOOSTER        LGT SNOW  19  16  86 N12       29.80R FOG     WCI   7
MANSFIELD      CLOUDY    18  15  88 N15       29.81R WCI   4
YOUNGSTOWN     LGT SNOW  19  15  84 N8        29.76S FOG     WCI   9
$$

OHZ042-051>053-060>062-070>072-077>081-261600-
  SOUTHWEST OHIO

CITY           SKY/WX    TMP DP  RH WIND       PRES   REMARKS
CINC-COVINGTON NOT AVBL
CINC-LUNKEN    CLOUDY    22  16  78 NW8       29.93R WCI  12
HAMILTON       CLOUDY    21  15  78 NW8       29.94R WCI  11
DAYTON         NOT AVBL
WRIGHT-PAT AFB NOT AVBL
DAYTON GENERAL CLOUDY    19  14  81 NW14      29.88R WCI   6
WILMINGTON     MOSUNNY   20  14  77 NW13      29.84R WCI   7
$$

OHZ036-037-039>041-045>050-054>059-063>069-073>076-082>088-261600-
  CENTRAL AND SOUTHEAST OHIO

CITY           SKY/WX    TMP DP  RH WIND       PRES   REMARKS
COLUMBUS       PTSUNNY   20  15  81 N16       29.81R WCI   6
OSU AIRPORT    MOSUNNY   19  13  77 N15       29.82R WCI   5
BOLTON FIELD   NOT AVBL
RICKENBACK AFB NOT AVBL
NEWARK         LGT SNOW  24  18  77 N9        29.79R WCI  14
MARION         CLOUDY    17  12  80 N15       29.85R WCI   2
LANCASTER      LGT SNOW  24  19  81 N9        29.80R WCI  14
ZANESVILLE     SNOW      22  18  85 N9        29.76R VSB 1/4 WCI  12
NEW PHILLY     LGT SNOW  23  18  81 N8        29.77S WCI  14
$$



USA.gov is the U.S. government's official web portal to all federal, state and local government web resources and services.